Weather History for Redmond, OR

Change the Weather History Date:

Tuesday, October 22, 2013

  Actual Average Record
Temperature  
Mean Temperature 49 °F 45 °F  
Max Temperature 72 °F 61 °F 85 °F (1999)
Min Temperature 26 °F 30 °F 16 °F (1980)
Degree Days  
Heating Degree Days 16 20  
Month to date heating degree days 462 356  
Since 1 July heating degree days 728 755  
Cooling Degree Days 0 0  
Month to date cooling degree days 0 0  
Year to date cooling degree days 350 222  
Moisture  
Dew Point 32 °F    
Average Humidity 59    
Maximum Humidity 92    
Minimum Humidity 25    
Precipitation  
Precipitation 0.00 in 0.03 in 0.46 in (1973)
Month to date precipitation 0.05 0.41  
Year to date precipitation 4.14 6.55  
Sea Level Pressure  
Sea Level Pressure 30.14 in    
Wind  
Wind Speed 4 mph (SSW)    
Max Wind Speed 12 mph    
Max Gust Speed -    
Visibility 10 miles    
Events      
T = Trace of Precipitation, MM = Missing Value Source: NWS Daily Summary

Daily Weather History Graph

Daily Weather History Graph

Search for Another Location

Airport:

Trip Planner

Search our weather history database for the weather conditions in past years. The results will help you decide how hot, cold, wet, or windy it might be!

Date:

Astronomy

Oct. 22, 2013 Rise Set
Actual Time 7:28 AM PDT 6:08 PM PDT
Civil Twilight 6:59 AM PDT 6:38 PM PDT
Nautical Twilight 6:25 AM PDT 7:11 PM PDT
Astronomical Twilight 5:51 AM PDT 7:45 PM PDT
Moon 8:47 PM PDT (10/22) 11:07 AM PDT (10/22)
Length of Visible Light 11h 38m
Length of Day
10h 39m
Waning Gibbous, 86% of the Moon is Illuminated
Oct 22
Waning Gibbous
Oct 26
Last Quarter
Nov 3
New
Nov 9
First Quarter
Nov 17
Full

Hourly Weather History & Observations

Time (PDT) Temp. Windchill Dew Point Humidity Pressure Visibility Wind Dir Wind Speed Gust Speed Precip Events Conditions
12:56 AM 39.0 °F 35.7 °F 32.0 °F 76% 30.16 in 10.0 mi SSE 4.6 mph - N/A   Clear
1:56 AM 34.0 °F - 28.9 °F 82% 30.17 in 10.0 mi Calm Calm - N/A   Clear
2:56 AM 33.1 °F 28.7 °F 28.0 °F 82% 30.17 in 10.0 mi South 4.6 mph - N/A   Clear
3:56 AM 30.9 °F - 28.0 °F 89% 30.17 in 10.0 mi Calm Calm - N/A   Clear
4:56 AM 33.1 °F 27.7 °F 28.0 °F 82% 30.17 in 10.0 mi South 5.8 mph - N/A   Clear
5:56 AM 28.9 °F - 25.0 °F 85% 30.19 in 10.0 mi Calm Calm - N/A   Clear
6:56 AM 32.0 °F 26.4 °F 28.0 °F 85% 30.20 in 10.0 mi South 5.8 mph - N/A   Clear
7:56 AM 30.9 °F - 27.0 °F 85% 30.22 in 10.0 mi Calm Calm - N/A   Clear
8:56 AM 42.1 °F - 30.9 °F 65% 30.21 in 10.0 mi Calm Calm - N/A   Clear
9:56 AM 50.0 °F - 32.0 °F 50% 30.20 in 10.0 mi SSE 4.6 mph - N/A   Clear
10:56 AM 57.0 °F - 33.1 °F 40% 30.18 in 10.0 mi Calm Calm - N/A   Clear
11:56 AM 61.0 °F - 33.1 °F 35% 30.15 in 10.0 mi Variable 3.5 mph - N/A   Clear
12:56 PM 66.0 °F - 34.0 °F 30% 30.13 in 10.0 mi Variable 3.5 mph - N/A   Clear
1:56 PM 68.0 °F - 33.1 °F 27% 30.10 in 10.0 mi Variable 4.6 mph - N/A   Clear
2:56 PM 70.0 °F - 35.1 °F 28% 30.08 in 10.0 mi WNW 8.1 mph - N/A   Clear
3:56 PM 71.1 °F - 34.0 °F 26% 30.08 in 10.0 mi NNW 9.2 mph - N/A   Clear
4:56 PM 66.9 °F - 39.0 °F 36% 30.07 in 10.0 mi NNW 11.5 mph - N/A   Clear
5:56 PM 63.0 °F - 36.0 °F 37% 30.08 in 10.0 mi NW 9.2 mph - N/A   Clear
6:56 PM 59.0 °F - 37.0 °F 44% 30.08 in 10.0 mi WNW 8.1 mph - N/A   Clear
7:56 PM 48.9 °F - 35.1 °F 59% 30.12 in 10.0 mi Calm Calm - N/A   Clear
8:56 PM 50.0 °F - 36.0 °F 59% 30.10 in 10.0 mi West 4.6 mph - N/A   Clear
9:56 PM 43.0 °F 41.3 °F 34.0 °F 71% 30.11 in 10.0 mi SSE 3.5 mph - N/A   Clear
10:56 PM 42.1 °F 39.2 °F 33.1 °F 70% 30.11 in 10.0 mi South 4.6 mph - N/A   Clear
11:56 PM 39.9 °F 35.8 °F 33.1 °F 77% 30.11 in 10.0 mi South 5.8 mph - N/A   Clear